Home   Weather   Abbotsford   Past weeks
Flag for Canada

Past Weather in Abbotsford, British Columbia, Canada — Yesterday and Last 2 Weeks

Now
57 °F

Scattered clouds.


Feels Like: 57 °F
Forecast: 75 / 57 °F
Wind: 2 mph from Northwest

Location: Abbotsford

Current Time: Jul 23, 2019 at 6:27:45 am

Latest Report: Jul 23, 2019 at 6:00 am


Visibility: 30 mi

Pressure: 30.06 "Hg

Humidity: 94%

Dew Point: 55 °F

Location of AbbotsfordLocation

Past Weather in Abbotsford — Graph

°F

Abbotsford Temperature Yesterday

Maximum temperature yesterday: 77 °F (at 2:00 pm)
Minimum temperature yesterday: 57 °F (at 6:00 am)
Average temperature yesterday: 68 °F

High & Low Weather Summary for the Past Weeks

 TemperatureHumidityPressure
High88 °F (Jul 21, 4:00 pm)100% (Jul 8, 5:00 am)30.14 "Hg (Jul 8, 5:00 am)
Low50 °F (Jul 20, 6:00 am)25% (Jul 21, 4:00 pm)29.82 "Hg (Jul 17, 10:00 am)
Average65 °F73%30.01 "Hg
* Reported Jul 8 5:00 am — Jul 23 5:00 am, Abbotsford. Weather by CustomWeather, © 2019

Note: Actual official high and low records may vary slightly from our data, if they occured in-between our weather recording intervals... More about our weather records

Advertising

Abbotsford Weather History for the Previous 24 Hours

Scroll right to see more
 ConditionsComfort  
Time TempWeatherWind HumidityBarometerVisibility
5:00 am
Tue, Jul 23
57 °FPassing clouds.No wind94%30.05 "Hg30 mi
4:14 am57 °FClear.2 mph94%30.04 "Hg15 mi
2:00 am59 °FPassing clouds.3 mph88%30.04 "Hg15 mi
1:00 am61 °FPassing clouds.5 mph83%30.04 "Hg15 mi
12:00 am63 °FPassing clouds.3 mph77%30.04 "Hg15 mi
11:00 pm
Mon, Jul 22
64 °FPassing clouds.2 mph73%30.03 "Hg15 mi
10:00 pm64 °FPassing clouds.6 mph73%30.03 "Hg15 mi
9:00 pm68 °FPartly sunny.6 mph56%30.01 "Hg30 mi
8:00 pm72 °FScattered clouds.8 mph50%30.01 "Hg30 mi
7:00 pm77 °FScattered clouds.5 mph42%30.01 "Hg30 mi
6:00 pm77 °FScattered clouds.9 mph42%30.01 "Hg30 mi
5:00 pm77 °FPassing clouds.13 mph39%30.02 "Hg30 mi
4:00 pm77 °FPassing clouds.16 mph39%30.03 "Hg30 mi
3:00 pm77 °FPassing clouds.10 mph39%30.03 "Hg30 mi
2:00 pm77 °FPassing clouds.10 mph39%30.03 "Hg30 mi
1:00 pm73 °FPassing clouds.12 mph44%30.03 "Hg30 mi
12:00 pm73 °FPassing clouds.15 mph47%30.03 "Hg30 mi
11:00 am73 °FPassing clouds.10 mph50%30.02 "Hg30 mi
10:00 am72 °FPassing clouds.13 mph41%30.01 "Hg30 mi
9:00 am68 °FPassing clouds.9 mph53%30.00 "Hg30 mi
8:00 am63 °FPassing clouds.6 mph68%29.98 "Hg30 mi
7:00 am61 °FPassing clouds.5 mph72%29.97 "Hg30 mi
6:00 am57 °FPassing clouds.6 mph82%29.96 "Hg30 mi
Weather by CustomWeather, © 2019

See weather overview